This is the latest recevied weather packets stored in our database for station/object DH2PG-6. If no packets are shown the sender has not sent any weather packets the latest 10 day(s).
| Time | Temp. | Humidity | Pressure | Rain* | Wind** | Luminosity | Snow |
|---|---|---|---|---|---|---|---|
| 1787859010 | 24.44° C | 56% | 1007.1 hPa | 0 mm | - | - | - |
| 1787858709 | 24.44° C | 56% | 1007.3 hPa | 0 mm | - | - | - |
| 1787858109 | 24.44° C | 56% | 1007.5 hPa | 0 mm | - | - | - |
| 1787857808 | 25° C | 56% | 1007.4 hPa | 0 mm | - | - | - |
| 1787857508 | 25° C | 56% | 1007.4 hPa | 0 mm | - | - | - |
| 1787856907 | 25° C | 56% | 1007.4 hPa | 0 mm | - | - | - |
| 1787856643 | 25° C | 56% | 1007.5 hPa | 0 mm | - | - | - |
| 1787856607 | 25° C | 56% | 1007.5 hPa | 0 mm | - | - | - |
| 1787856307 | 25° C | 56% | 1007.4 hPa | 0 mm | - | - | - |
| 1787855706 | 25° C | 55% | 1007.5 hPa | 0 mm | - | - | - |
| 1787855406 | 25° C | 55% | 1007.3 hPa | 0 mm | - | - | - |
| 1787855106 | 25° C | 55% | 1007.3 hPa | 0 mm | - | - | - |
| 1787854205 | 25.56° C | 54% | 1007.3 hPa | 0 mm | - | - | - |
| 1787853904 | 25.56° C | 54% | 1007.2 hPa | 0 mm | - | - | - |
| 1787853304 | 26.11° C | 53% | 1007 hPa | 0 mm | - | - | - |
| 1787853004 | 26.11° C | 53% | 1007.1 hPa | 0 mm | - | - | - |
| 1787852703 | 26.11° C | 52% | 1007.2 hPa | 0 mm | - | - | - |
| 1787851803 | 26.67° C | 51% | 1007.6 hPa | 0 mm | - | - | - |
| 1787851502 | 27.22° C | 50% | 1007.5 hPa | 0 mm | - | - | - |
| 1787850902 | 27.78° C | 49% | 1007.8 hPa | 0 mm | - | - | - |
| 1787850301 | 28.33° C | 48% | 1008.1 hPa | 0 mm | - | - | - |
| 1787849400 | 28.89° C | 48% | 1008.2 hPa | 0 mm | - | - | - |
| 1787849100 | 28.89° C | 48% | 1008.4 hPa | 0 mm | - | - | - |
| 1787848499 | 28.89° C | 49% | 1008.4 hPa | 0 mm | - | - | - |
| 1787848199 | 28.33° C | 50% | 1008.5 hPa | 0 mm | - | - | - |
* Rain latest hour (hover to see other rain measurements)
** Current wind speed in m/s (hover to see current wind gust speed)